SUD004 LYTV-LQSA

Flight info

Callsign SUD004
Flight time 0h 30m
Altitude 16000
Route NIK DCT GACMO DCT KEB
Aircraft A320/M-SDFGHILORVWY/S

Departure

Time 2026-04-21 01:34
Airport Tivat Airport (LYTV)

Arrival

Time 2026-04-21 02:04
Airport Sarajevo International Airport (LQSA)
Time Latitude Longitude Altitude Speed Heading
2026-04-21 01:19 42.41084 18.71847 38 ft 0 kts 177°
2026-04-21 01:25 42.41065 18.71848 13 ft 5 kts 178°
2026-04-21 01:25 42.41019 18.71856 14 ft 8 kts 178°
2026-04-21 01:25 42.40962 18.71806 14 ft 12 kts 223°
2026-04-21 01:26 42.40910 18.71787 15 ft 1 kts 173°
2026-04-21 01:26 42.40907 18.71797 17 ft 4 kts 124°
2026-04-21 01:26 42.40863 18.71869 15 ft 15 kts 125°
2026-04-21 01:26 42.40768 18.71975 14 ft 21 kts 137°
2026-04-21 01:27 42.40643 18.72124 13 ft 27 kts 137°
2026-04-21 01:27 42.40513 18.72276 14 ft 25 kts 140°
2026-04-21 01:27 42.40383 18.72434 16 ft 25 kts 139°
2026-04-21 01:27 42.40246 18.72593 15 ft 27 kts 137°
2026-04-21 01:28 42.40095 18.72784 13 ft 29 kts 140°
2026-04-21 01:28 42.39953 18.72940 12 ft 26 kts 139°
2026-04-21 01:28 42.39813 18.73102 12 ft 18 kts 138°
2026-04-21 01:28 42.39749 18.73185 13 ft 13 kts 127°
2026-04-21 01:29 42.39684 18.73291 14 ft 13 kts 132°
2026-04-21 01:29 42.39666 18.73273 15 ft 9 kts 346°
2026-04-21 01:29 42.39697 18.73242 14 ft 0 kts 314°
2026-04-21 01:33 42.39703 18.73235 13 ft 8 kts 314°
2026-04-21 01:33 42.39938 18.72955 12 ft 86 kts 317°
2026-04-21 01:33 42.40568 18.72217 14 ft 150 kts 320°
2026-04-21 01:34 42.41438 18.71190 368 ft 171 kts 318°
2026-04-21 01:34 42.42299 18.70012 1005 ft 183 kts 304°
2026-04-21 01:34 42.42634 18.68329 1578 ft 199 kts 261°
2026-04-21 01:34 42.41936 18.66716 2177 ft 206 kts 216°
2026-04-21 01:35 42.40761 18.65595 2967 ft 206 kts 210°
2026-04-21 01:35 42.39548 18.64560 3735 ft 208 kts 211°
2026-04-21 01:35 42.38323 18.63506 4519 ft 209 kts 213°
2026-04-21 01:35 42.37118 18.62429 5334 ft 208 kts 214°
2026-04-21 01:36 42.35927 18.61329 6142 ft 207 kts 215°
2026-04-21 01:36 42.34602 18.60535 6842 ft 213 kts 192°
2026-04-21 01:36 42.33106 18.60675 7524 ft 223 kts 165°
2026-04-21 01:36 42.31791 18.61849 8144 ft 235 kts 133°
2026-04-21 01:37 42.31001 18.63823 8786 ft 243 kts 114°
2026-04-21 01:37 42.30660 18.66065 9434 ft 250 kts 85°
2026-04-21 01:37 42.31206 18.68279 10038 ft 252 kts 52°
2026-04-21 01:37 42.32533 18.69840 10378 ft 261 kts 20°
2026-04-21 01:38 42.34273 18.70758 10808 ft 275 kts 15°
2026-04-21 01:38 42.36086 18.71642 11530 ft 279 kts 14°
2026-04-21 01:38 42.37924 18.72528 12294 ft 282 kts 14°
2026-04-21 01:38 42.39783 18.73428 13041 ft 285 kts 14°
2026-04-21 01:39 42.41707 18.74366 13536 ft 304 kts 14°
2026-04-21 01:39 42.43728 18.75361 14195 ft 311 kts 14°
2026-04-21 01:39 42.45780 18.76385 14881 ft 318 kts 15°
2026-04-21 01:39 42.47869 18.77435 15621 ft 324 kts 15°
2026-04-21 01:40 42.49986 18.78501 15902 ft 326 kts 15°
2026-04-21 01:40 42.52130 18.79580 15988 ft 339 kts 14°
2026-04-21 01:40 42.54442 18.80728 15998 ft 368 kts 15°
2026-04-21 01:40 42.56932 18.81960 15991 ft 392 kts 15°
2026-04-21 01:41 42.59519 18.83252 15990 ft 400 kts 15°
2026-04-21 01:41 42.62135 18.84574 15988 ft 401 kts 16°
2026-04-21 01:41 42.64754 18.85904 16005 ft 402 kts 16°
2026-04-21 01:41 42.67372 18.87233 15989 ft 402 kts 16°
2026-04-21 01:42 42.69956 18.88543 16003 ft 402 kts 16°
2026-04-21 01:42 42.72637 18.89741 15991 ft 397 kts
2026-04-21 01:42 42.75352 18.90191 15998 ft 391 kts 356°
2026-04-21 01:42 42.78032 18.89886 15996 ft 384 kts 344°
2026-04-21 01:43 42.80570 18.88864 16007 ft 378 kts 333°
2026-04-21 01:43 42.82873 18.87207 16000 ft 373 kts 322°
2026-04-21 01:43 42.84942 18.85171 16001 ft 371 kts 320°
2026-04-21 01:43 42.87026 18.83095 16001 ft 371 kts 320°
2026-04-21 01:44 42.89141 18.80991 16001 ft 372 kts 320°
2026-04-21 01:44 42.91231 18.78911 15993 ft 372 kts 320°
2026-04-21 01:44 42.93318 18.76831 15997 ft 372 kts 320°
2026-04-21 01:44 42.95402 18.74748 15994 ft 371 kts 320°
2026-04-21 01:45 42.97486 18.72662 15993 ft 371 kts 320°
2026-04-21 01:45 42.99568 18.70576 15986 ft 371 kts 320°
2026-04-21 01:45 43.01650 18.68492 15993 ft 371 kts 320°
2026-04-21 01:45 43.03733 18.66402 15990 ft 371 kts 320°
2026-04-21 01:46 43.05819 18.64310 15991 ft 371 kts 320°
2026-04-21 01:46 43.07900 18.62222 16003 ft 371 kts 320°
2026-04-21 01:46 43.09985 18.60127 15995 ft 372 kts 320°
2026-04-21 01:46 43.12093 18.58069 15987 ft 374 kts 324°
2026-04-21 01:47 43.14435 18.56459 15989 ft 379 kts 335°
2026-04-21 01:47 43.16991 18.55487 15992 ft 385 kts 346°
2026-04-21 01:47 43.19663 18.55074 15989 ft 387 kts 350°
2026-04-21 01:47 43.22311 18.54719 15991 ft 388 kts 350°
2026-04-21 01:48 43.24997 18.54358 15991 ft 388 kts 350°
2026-04-21 01:48 43.27681 18.53993 15991 ft 388 kts 350°
2026-04-21 01:48 43.30368 18.53626 15994 ft 388 kts 350°
2026-04-21 01:48 43.33049 18.53261 15993 ft 388 kts 350°
2026-04-21 01:49 43.35737 18.52894 15994 ft 388 kts 350°
2026-04-21 01:49 43.38417 18.52530 15989 ft 387 kts 350°
2026-04-21 01:49 43.41095 18.52167 15986 ft 388 kts 350°
2026-04-21 01:49 43.43785 18.51802 15987 ft 388 kts 350°
2026-04-21 01:50 43.46475 18.51436 15996 ft 388 kts 350°
2026-04-21 01:50 43.49158 18.51069 16011 ft 388 kts 350°
2026-04-21 01:50 43.51845 18.50702 16013 ft 388 kts 350°
2026-04-21 01:50 43.54532 18.50333 16015 ft 388 kts 350°
2026-04-21 01:51 43.57217 18.49966 16015 ft 387 kts 350°
2026-04-21 01:51 43.59899 18.49600 16021 ft 387 kts 350°
2026-04-21 01:51 43.62578 18.49231 16015 ft 387 kts 350°
2026-04-21 01:51 43.65257 18.48862 16015 ft 386 kts 350°
2026-04-21 01:52 43.67898 18.48502 15574 ft 380 kts 350°
2026-04-21 01:52 43.72697 18.46216 14361 ft 361 kts 316°
2026-04-21 01:52 43.74222 18.43619 14212 ft 340 kts 296°
2026-04-21 01:53 43.75041 18.40604 13854 ft 332 kts 286°
2026-04-21 01:53 43.75696 18.37554 13262 ft 330 kts 285°
2026-04-21 01:53 43.76336 18.34517 12694 ft 328 kts 285°
2026-04-21 01:53 43.76969 18.31492 12104 ft 326 kts 285°
2026-04-21 01:54 43.77596 18.28495 11508 ft 324 kts 285°
2026-04-21 01:54 43.78219 18.25513 10943 ft 322 kts 285°
2026-04-21 01:54 43.78837 18.22542 10398 ft 321 kts 285°
2026-04-21 01:54 43.79441 18.19634 10243 ft 307 kts 285°
2026-04-21 01:55 43.80038 18.16864 10103 ft 293 kts 288°
2026-04-21 01:55 43.80734 18.14277 9992 ft 281 kts 290°
2026-04-21 01:55 43.81433 18.11800 9792 ft 273 kts 290°
2026-04-21 01:55 43.82114 18.09398 9416 ft 270 kts 290°
2026-04-21 01:56 43.82806 18.06946 8976 ft 270 kts 290°
2026-04-21 01:56 43.83497 18.04507 8432 ft 273 kts 290°
2026-04-21 01:56 43.84194 18.02047 7890 ft 275 kts 290°
2026-04-21 01:56 43.85121 17.99773 7363 ft 279 kts 311°
2026-04-21 01:57 43.86721 17.98219 6721 ft 288 kts 338°
2026-04-21 01:57 43.88680 17.97812 6061 ft 286 kts
2026-04-21 01:57 43.90553 17.98613 5395 ft 281 kts 25°
2026-04-21 01:57 43.92270 17.99832 4715 ft 274 kts 27°
2026-04-21 01:58 43.93755 18.01353 4219 ft 258 kts 55°
2026-04-21 01:58 43.94273 18.03563 4177 ft 233 kts 93°
2026-04-21 01:58 43.93705 18.05512 3883 ft 215 kts 135°
2026-04-21 01:58 43.92907 18.06309 3741 ft 204 kts 151°
2026-04-21 01:59 43.91841 18.07461 3510 ft 192 kts 120°
2026-04-21 01:59 43.91364 18.09167 3161 ft 190 kts 112°
2026-04-21 01:59 43.90794 18.10812 2744 ft 189 kts 118°
2026-04-21 01:59 43.90191 18.12415 2432 ft 181 kts 118°
2026-04-21 02:00 43.89652 18.13834 2400 ft 160 kts 117°
2026-04-21 02:00 43.89139 18.15229 2037 ft 160 kts 117°
2026-04-21 02:00 43.88664 18.16512 2131 ft 136 kts 117°
2026-04-21 02:00 43.88252 18.17617 2759 ft 126 kts 117°
2026-04-21 02:01 43.87821 18.18778 2917 ft 142 kts 117°
2026-04-21 02:01 43.87374 18.19981 2994 ft 141 kts 117°
2026-04-21 02:01 43.86927 18.21182 3000 ft 140 kts 117°
2026-04-21 02:01 43.86481 18.22379 3006 ft 139 kts 117°
2026-04-21 02:02 43.86036 18.23570 3005 ft 140 kts 117°
2026-04-21 02:02 43.85588 18.24770 2889 ft 140 kts 117°
2026-04-21 02:02 43.85144 18.25961 2729 ft 139 kts 117°
2026-04-21 02:02 43.84700 18.27148 2522 ft 138 kts 117°
2026-04-21 02:03 43.84260 18.28327 2316 ft 137 kts 117°
2026-04-21 02:03 43.83825 18.29505 2070 ft 137 kts 118°
2026-04-21 02:03 43.83377 18.30656 1864 ft 135 kts 117°
2026-04-21 02:03 43.83095 18.31425 1764 ft 135 kts 117°
2026-04-21 02:04 43.82551 18.32909 1667 ft 110 kts 118°
2026-04-21 02:04 43.82444 18.33179 1672 ft 80 kts 118°
2026-04-21 02:04 43.82273 18.33638 1687 ft 13 kts 122°
2026-04-21 02:04 43.82300 18.33682 1686 ft 0 kts 330°
2026-04-21 02:05 43.82357 18.33658 1689 ft 18 kts 347°
2026-04-21 02:05 43.82381 18.33652 1687 ft 0 kts 350°
2026-04-21 02:06 43.82400 18.33647 1684 ft 8 kts 350°
2026-04-21 02:06 43.82434 18.33640 1686 ft 0 kts 358°
2026-04-21 02:07 43.82437 18.33639 1686 ft 4 kts 358°
2026-04-21 02:07 43.82487 18.33667 1686 ft 8 kts 24°
2026-04-21 02:07 43.82514 18.33684 1686 ft 2 kts 26°
2026-04-21 02:08 43.82516 18.33686 1687 ft 0 kts 27°
2026-04-21 02:08 43.82518 18.33687 1687 ft 0 kts 27°